"2019/01/01", 6.2, 6.5, 6.0
"2019/01/02", 6.1, 6.3, 5.7
"2019/01/03", 6.1, 6.5, 5.8
"2019/01/04"," *"," *"," *"
"2019/01/05"," *"," *"," *"
"2019/01/06"," *"," *"," *"
"2019/01/07"," *"," *"," *"
"2019/01/08", 6.0, 6.3, 5.8
"2019/01/09", 6.0, 6.2, 5.7
"2019/01/10", 5.8, 5.9, 5.6
"2019/01/11", 5.6, 5.9, 5.4
"2019/01/12"," *"," *"," *"
"2019/01/13"," *"," *"," *"
"2019/01/14"," *"," *"," *"
"2019/01/15"," *"," *"," *"
"2019/01/16", 5.8, 6.1, 5.5
"2019/01/17", 6.0, 6.1, 5.8
"2019/01/18", 5.5, 5.9, 5.2
"2019/01/19", 5.5, 5.8, 5.2
"2019/01/20", 5.6, 5.9, 5.2
"2019/01/21", 5.6, 5.8, 5.2
"2019/01/22", 5.5, 5.9, 5.2
"2019/01/23", 5.6, 5.8, 5.3
"2019/01/24", 5.6, 5.8, 5.3
"2019/01/25", 5.3, 5.6, 4.9
"2019/01/26", 5.3, 5.6, 5.0
"2019/01/27", 4.8, 5.2, 4.4
"2019/01/28", 5.0, 5.2, 4.8
"2019/01/29", 4.9, 5.2, 4.5
"2019/01/30", 5.0, 5.4, 4.6
"2019/01/31", 5.3, 5.4, 5.2
"2019/02/01", 5.3, 5.7, 5.0
"2019/02/02", 5.2, 5.6, 4.9
"2019/02/03", 5.5, 5.9, 5.3
"2019/02/04", 6.8, 7.7, 5.8
"2019/02/05", 6.8, 7.3, 6.5
"2019/02/06", 6.5, 6.6, 6.4
"2019/02/07", 6.4, 6.7, 6.2
"2019/02/08", 6.5, 6.7, 6.2
"2019/02/09", 5.4, 6.2, 4.9
"2019/02/10", 5.0, 5.4, 4.6
"2019/02/11", 4.9, 5.3, 4.7
"2019/02/12", 4.9, 5.3, 4.5
"2019/02/13", 5.1, 5.2, 4.9
"2019/02/14", 5.0, 5.3, 4.7
"2019/02/15", 4.8, 5.2, 4.6
"2019/02/16", 4.8, 5.2, 4.5
"2019/02/17", 5.3, 5.6, 5.0
"2019/02/18", 5.7, 6.3, 5.3
"2019/02/19", 6.0, 6.2, 5.7
"2019/02/20", 6.3, 7.0, 5.8
"2019/02/21", 7.3, 8.1, 6.7
"2019/02/22"," *"," *"," *"
"2019/02/23"," *"," *"," *"
"2019/02/24"," *"," *"," *"
"2019/02/25"," *"," *"," *"
"2019/02/26", 8.7, 8.7, 8.6
"2019/02/27", 8.3, 8.6, 8.1
"2019/02/28", 8.2, 8.3, 8.2
"2019/03/01", 8.3, 8.6, 8.0
"2019/03/02", 8.5, 8.9, 8.0
"2019/03/03", 8.4, 8.8, 8.2
"2019/03/04", 8.3, 8.5, 8.1
"2019/03/05", 8.3, 8.9, 7.8
"2019/03/06", 8.8, 8.9, 8.6
"2019/03/07", 8.9, 9.1, 8.6
"2019/03/08", 8.9, 9.5, 8.4
"2019/03/09", 9.4, 9.8, 8.9
"2019/03/10", 9.7,10.3, 9.3
"2019/03/11",10.4,10.8,10.2
"2019/03/12",10.4,11.3, 9.8
"2019/03/13",10.7,11.2,10.4
"2019/03/14",10.7,11.1,10.3
"2019/03/15",10.4,10.9, 9.9
"2019/03/16",10.5,10.7,10.3
"2019/03/17",10.5,11.1, 9.9
"2019/03/18",10.5,11.0, 9.9
"2019/03/19",10.5,11.0,10.4
"2019/03/20",11.4,11.9,11.0
"2019/03/21",11.7,13.0,10.9
"2019/03/22",12.5,13.0,12.2
"2019/03/23",11.9,12.5,11.5
"2019/03/24",11.2,11.8,10.6
"2019/03/25",10.9,11.6,10.1
"2019/03/26",11.5,11.6,11.4
"2019/03/27",11.5,11.9,11.2
"2019/03/28",11.6,11.8,11.3
"2019/03/29",11.0,11.5,10.6
"2019/03/30",10.5,10.7,10.2
"2019/03/31",10.7,11.3,10.4
"2019/04/01",11.3,11.8,10.7
"2019/04/02",11.4,11.9,10.9
"2019/04/03",11.4,12.1,10.7
"2019/04/04",11.3,11.7,11.1
"2019/04/05",11.5,12.2,10.9
"2019/04/06",12.1,12.9,11.6
"2019/04/07",12.9,13.5,12.5
"2019/04/08",12.6,13.5,12.1
"2019/04/09",12.2,13.0,11.4
"2019/04/10",12.1,12.6,11.3
"2019/04/11",11.4,12.0,10.8
"2019/04/12"," *"," *"," *"
"2019/04/13"," *"," *"," *"
"2019/04/14"," *"," *"," *"
"2019/04/15"," *"," *"," *"
"2019/04/16"," *"," *"," *"
"2019/04/17",14.0,14.3,13.7
"2019/04/18",14.3,15.0,13.9
"2019/04/19",15.0,16.1,14.3
"2019/04/20",15.2,15.7,14.5
"2019/04/21",15.4,15.9,15.0
"2019/04/22",15.8,16.6,15.3
"2019/04/23",16.3,16.8,15.9
"2019/04/24",16.8,17.4,16.3
"2019/04/25",17.2,17.5,16.8
"2019/04/26",16.1,17.0,15.3
"2019/04/27",14.9,15.2,14.6
"2019/04/28",15.0,15.9,14.4
"2019/04/29",15.4,15.7,15.1
"2019/04/30",15.7,15.9,15.6
"2019/05/01",16.0,16.6,15.7
"2019/05/02",16.5,16.9,16.2
"2019/05/03",17.0,17.7,16.6
"2019/05/04",17.4,17.8,17.0
"2019/05/05",17.9,18.6,17.4
"2019/05/06",18.3,18.8,18.0
"2019/05/07",18.2,18.6,17.9
"2019/05/08",17.6,18.0,17.2
"2019/05/09",17.7,18.0,17.4
"2019/05/10",17.9,18.7,17.4
"2019/05/11",18.8,19.7,18.2
"2019/05/12",18.6,19.1,18.2
"2019/05/13",18.1,18.6,17.5
"2019/05/14",18.6,18.8,18.4
"2019/05/15",18.8,19.2,18.4
"2019/05/16",19.4,20.3,18.7
"2019/05/17",20.0,20.7,19.3
"2019/05/18",20.3,20.7,19.8
"2019/05/19",20.6,21.2,20.1
"2019/05/20",20.8,21.3,20.3
"2019/05/21",20.5,21.0,20.1
"2019/05/22",20.0,20.5,19.5
"2019/05/23",20.4,21.1,19.8
"2019/05/24",21.1,22.2,20.6
"2019/05/25",21.7,22.7,20.9
"2019/05/26",21.5,22.2,21.0
"2019/05/27",21.7,22.3,21.2
"2019/05/28",21.7,21.9,21.5
"2019/05/29",21.5,21.7,21.1
"2019/05/30",21.8,22.8,21.0
"2019/05/31",21.9,22.1,21.7
"2019/06/01",21.7,22.1,21.3
"2019/06/02",21.7,22.1,21.4
"2019/06/03",22.1,22.6,21.7
"2019/06/04",22.3,22.7,22.0
"2019/06/05",22.2,22.4,22.0
"2019/06/06",22.5,23.4,21.9
"2019/06/07",22.7,23.1,22.4
"2019/06/08",22.2,22.4,21.8
"2019/06/09",21.4,21.8,21.0
"2019/06/10",20.4,21.0,19.9
"2019/06/11",20.1,20.7,19.6
"2019/06/12",20.0,20.2,19.7
"2019/06/13",20.0,20.5,19.7
"2019/06/14",20.7,21.1,20.4
"2019/06/15",20.6,20.8,20.3
"2019/06/16",20.5,21.0,20.2
"2019/06/17",21.1,22.4,20.4
"2019/06/18",21.7,22.1,21.4
"2019/06/19",21.8,22.0,21.8
"2019/06/20",22.0,22.8,21.5
"2019/06/21",22.7,22.9,22.6
"2019/06/22",22.9,23.1,22.6
"2019/06/23",22.7,22.9,22.4
"2019/06/24",22.0,22.4,21.7
"2019/06/25",21.8,22.5,21.5
"2019/06/26",22.4,22.6,22.4
"2019/06/27",22.7,23.3,22.4
"2019/06/28",23.3,23.7,23.1
"2019/06/29",23.0,23.5,22.6
"2019/06/30",22.6,22.7,22.5
"2019/07/01",22.5,22.7,22.4
"2019/07/02",22.7,22.8,22.6
"2019/07/03",23.0,23.4,22.7
"2019/07/04",23.3,23.4,23.1
"2019/07/05",22.9,23.1,22.7
"2019/07/06",22.8,23.0,22.6
"2019/07/07",22.2,22.6,21.9
"2019/07/08",21.8,22.1,21.4
"2019/07/09",21.7,21.9,21.5
"2019/07/10",21.6,22.0,21.3
"2019/07/11",21.6,22.0,21.3
"2019/07/12",21.8,21.9,21.7
"2019/07/13",22.1,22.8,21.7
"2019/07/14",22.3,22.6,22.1
"2019/07/15",22.2,22.4,22.0
"2019/07/16",22.0,22.3,21.9
"2019/07/17",22.2,22.8,21.9
"2019/07/18",22.5,22.7,22.3
"2019/07/19",22.4,22.5,22.4
"2019/07/20",23.6,24.6,22.4
"2019/07/21",24.2,24.5,23.9
"2019/07/22",23.6,23.9,23.4
"2019/07/23",23.7,24.3,23.3
"2019/07/24",24.7,25.6,24.2
"2019/07/25",25.2,26.0,24.7
"2019/07/26",25.0,25.4,24.7
"2019/07/27",25.5,26.0,25.3
"2019/07/28",25.8,26.0,25.7
"2019/07/29",25.9,26.3,25.6
"2019/07/30",26.2,26.5,26.1
"2019/07/31",26.6,27.6,26.0
"2019/08/01",27.4,27.8,27.1
"2019/08/02",27.5,27.8,27.2
"2019/08/03",27.8,28.3,27.6
"2019/08/04",28.5,29.0,28.1
"2019/08/05",29.0,29.5,28.5
"2019/08/06",29.0,29.2,28.9
"2019/08/07",29.2,30.0,28.7
"2019/08/08",29.4,29.6,29.2
"2019/08/09",29.2,29.6,28.8
"2019/08/10",29.7,30.4,29.2
"2019/08/11",29.8,30.1,29.5
"2019/08/12",29.3,29.6,29.0
"2019/08/13",29.6,29.9,29.2
"2019/08/14",29.7,29.8,29.5
"2019/08/15",29.6,29.9,29.3
"2019/08/16",29.0,29.7,28.4
"2019/08/17",28.3,28.5,28.1
"2019/08/18",28.7,29.2,28.3
"2019/08/19",28.7,29.0,28.4
"2019/08/20",28.2,28.4,28.0
"2019/08/21",28.1,28.5,27.6
"2019/08/22",28.0,28.4,27.7
"2019/08/23",27.8,28.1,27.7
"2019/08/24",27.8,28.3,27.4
"2019/08/25",27.7,28.1,27.2
"2019/08/26",27.5,27.9,27.2
"2019/08/27",27.2,27.5,26.8
"2019/08/28",27.2,27.4,27.1
"2019/08/29",27.0,27.2,26.8
"2019/08/30",27.0,27.1,26.9
"2019/08/31",27.1,27.6,26.7
"2019/09/01",27.6,28.1,27.2
"2019/09/02",28.0,28.6,27.6
"2019/09/03",27.6,28.2,27.1
"2019/09/04",26.7,27.1,26.4
"2019/09/05",26.7,27.3,26.2
"2019/09/06",27.2,27.7,26.9
"2019/09/07",27.5,28.0,27.1
"2019/09/08",27.8,28.1,27.5
"2019/09/09",27.3,28.0,27.0
"2019/09/10",27.1,27.5,27.0
"2019/09/11",27.6,27.8,27.5
"2019/09/12",27.6,27.8,27.2
"2019/09/13",26.6,27.2,25.9
"2019/09/14",25.6,25.9,25.3
"2019/09/15",25.7,26.0,25.4
"2019/09/16",25.6,26.0,25.3
"2019/09/17",25.5,25.9,25.3
"2019/09/18",25.3,25.8,24.8
"2019/09/19",24.7,25.0,24.4
"2019/09/20",24.6,25.0,24.2
"2019/09/21",24.5,24.9,24.2
"2019/09/22",23.9,24.2,23.5
"2019/09/23",24.3,24.9,23.8
"2019/09/24",24.9,25.1,24.6
"2019/09/25",24.8,25.0,24.6
"2019/09/26",24.6,24.9,24.3
"2019/09/27",24.5,24.9,24.2
"2019/09/28",24.6,24.7,24.5
"2019/09/29",24.5,24.6,24.4
"2019/09/30",24.7,25.0,24.4
"2019/10/01",24.7,25.1,24.4
"2019/10/02",24.9,25.2,24.7
"2019/10/03",24.9,25.0,24.7
"2019/10/04",24.8,24.9,24.7
"2019/10/05",24.7,25.0,24.4
"2019/10/06",24.2,24.9,23.5
"2019/10/07",22.8,23.5,22.3
"2019/10/08",22.7,22.9,22.5
"2019/10/09",23.0,23.4,22.6
"2019/10/10",22.7,23.3,22.3
"2019/10/11"," *"," *"," *"
"2019/10/12",22.3,22.5,22.2
"2019/10/13",22.6,22.9,22.3
"2019/10/14",22.1,22.7,21.5
"2019/10/15",21.3,21.5,21.1
"2019/10/16",20.7,21.1,20.5
"2019/10/17",20.4,20.7,20.1
"2019/10/18",20.5,20.7,20.2
"2019/10/19",19.8,20.2,19.7
"2019/10/20",20.0,20.2,19.8
"2019/10/21",20.1,20.2,19.9
"2019/10/22",19.2,19.9,18.8
"2019/10/23",18.9,19.4,18.5
"2019/10/24",19.5,19.6,19.3
"2019/10/25",19.0,19.4,18.6
"2019/10/26",18.5,18.6,18.4
"2019/10/27",18.7,18.9,18.6
"2019/10/28",18.8,18.9,18.7
"2019/10/29",18.5,18.8,18.2
"2019/10/30",18.2,18.6,18.1
"2019/10/31",18.6,18.7,18.4
"2019/11/01",18.6,18.8,18.4
"2019/11/02",18.5,18.8,18.2
"2019/11/03",18.3,18.5,18.2
"2019/11/04",18.2,18.4,18.0
"2019/11/05",17.7,18.1,17.4
"2019/11/06",17.7,17.9,17.5
"2019/11/07",17.6,17.8,17.4
"2019/11/08",17.2,17.5,16.9
"2019/11/09",16.8,17.2,16.5
"2019/11/10",16.7,17.0,16.4
"2019/11/11",16.7,16.9,16.6
"2019/11/12",16.6,16.8,16.4
"2019/11/13",16.5,16.7,16.2
"2019/11/14",16.5,16.7,16.3
"2019/11/15",16.2,16.5,16.1
"2019/11/16",16.0,16.1,15.7
"2019/11/17",15.9,16.1,15.7
"2019/11/18",15.8,16.1,15.7
"2019/11/19",15.9,16.1,15.8
"2019/11/20",15.6,16.1,15.1
"2019/11/21",14.8,15.1,14.6
"2019/11/22",14.4,15.0,14.0
"2019/11/23",14.1,14.3,14.0
"2019/11/24",14.4,14.5,14.3
"2019/11/25",14.6,14.8,14.5
"2019/11/26",14.1,14.6,13.7
"2019/11/27",13.2,13.7,13.1
"2019/11/28",13.0,13.2,12.6
"2019/11/29",11.8,12.6,11.5
"2019/11/30",12.0,12.4,11.7
"2019/12/01",12.1,12.4,12.0
"2019/12/02",11.9,12.0,11.8
"2019/12/03",12.0,12.2,11.9
"2019/12/04",11.9,12.1,11.8
"2019/12/05",11.7,11.9,11.6
"2019/12/06",11.1,11.6,10.9
"2019/12/07",10.5,10.9,10.2
"2019/12/08",10.3,10.9,10.0
"2019/12/09",10.5,10.9,10.2
"2019/12/10",10.3,10.5,10.1
"2019/12/11",10.7,11.0,10.5
"2019/12/12",10.9,11.1,10.8
"2019/12/13",10.6,11.1,10.3
"2019/12/14",10.2,10.3,10.1
"2019/12/15",10.0,10.2, 9.8
"2019/12/16", 9.7, 9.9, 9.4
"2019/12/17",10.0,10.0, 9.9
"2019/12/18",10.1,10.3,10.0
"2019/12/19",10.1,10.3, 9.9
"2019/12/20", 9.9,10.1, 9.8
"2019/12/21", 9.8,10.1, 9.6
"2019/12/22", 9.4, 9.6, 9.4
"2019/12/23", 9.3, 9.4, 9.1
"2019/12/24", 9.3, 9.4, 9.2
"2019/12/25", 9.0, 9.3, 8.8
"2019/12/26", 8.7, 8.8, 8.6
"2019/12/27", 9.0, 9.2, 8.8
"2019/12/28", 8.9, 9.1, 8.8
"2019/12/29", 8.6, 9.0, 8.4
"2019/12/30", 9.0, 9.1, 8.8
"2019/12/31", 8.9, 9.1, 8.7
